www.pogodaiklimat.ru

АРХИВ ПОГОДЫ в Хантингтоне

Время (UTC), дата Ветер
(напр.,м/с)
 
Видим.   Явления Облачность Т
(С)
Тd
(С)
f
(%)
Тe
(С)
Тes
(С)
Комфортность

P
(гПа)

Po
(гПа)
Тmin
(С)
Tmax
(С)
R
(мм)
SD
(см)
13:16 10.09 ЮЗ  5 км    10/10 м  +18.0  +16.0  88  +18  +18    1013.9  984.2  +17.2  +21.1  4.1   
14:51 10.09 З   16 км    10/10 м  +19.0  +16.0  83  +20  +20    1014.2  984.8  +17.2  +21.1  4.1   
15:51 10.09 З  16 км    10/10 м  +19.0  +16.0  83  +20  +20    1014.2  984.8  +17.2  +21.1  4.1   
16:51 10.09 З  16 км    10/10 м  +21.1  +16.7  76  +25  +25  комфорт  1014.0  984.5  +17.2  +21.1  4.1   
17:51 10.09 З  16 км    10/10 м  +21.0  +16.0  73  +25  +25  комфорт  1013.9  984.5  +17.8  +21.7     
18:51 10.09 З   16 км    10/10 м  +21.0  +16.0  73  +25  +25  комфорт  1013.9  984.5  +17.8  +21.7     
19:51 10.09 З  16 км    10/10 м  +20.6  +15.6  73  +24  +24  комфорт  1014.1  984.8  +17.8  +21.7     
20:51 10.09 СЗ  16 км    10/10 м  +19.0  +14.0  73  +20  +20    1014.5  985.1  +17.8  +21.7     
21:51 10.09 З  16 км    10/10 м  +18.0  +14.0  77  +19  +19    1015.6  985.8  +17.8  +21.7     
22:51 10.09 З  16 км    10/10 м  +17.8  +14.4  80  +18  +18    1016.2  986.5  +17.8  +21.7     
23:51 10.09 СЗ  16 км    10/10 м  +17.0  +14.0  82  +17  +17    1017.0  987.4  +16.7  +17.8     
00:17 11.09 СЗ  16 км    10/10 м  +17.0  +14.0  82  +17  +17    1017.8  987.8  +16.7  +17.8     
01:51 11.09 СЗ  16 км    10/10 м  +17.2  +13.9  81  +18  +18    1018.1  988.4  +16.7  +17.8     
02:51 11.09 штиль  16 км    10/10 м  +17.0  +14.0  82  +17  +17    1018.3  988.4  +16.7  +17.8     
03:51 11.09 штиль  16 км    10/10 м  +16.7  +14.4  86  +17  +17    1018.7  989.1  +16.7  +17.8     
04:51 11.09 штиль  16 км    10/10 м  +16.7  +15.0  90  +17  +17    1018.7  989.1  +16.7  +17.8     
05:51 11.09 ЮЗ  16 км    10/10 м  +17.0  +14.0  82  +18  +18    1018.9  989.4  +16.1  +16.7     
06:15 11.09 штиль  16 км    10/10 м  +17.0  +15.0  88  +17  +17    1018.9  989.1  +16.1  +16.7     
07:51 11.09 штиль  16 км    10/10 м  +16.7  +14.4  86  +17  +17    1019.0  989.4  +16.1  +16.7     
08:51 11.09 штиль  16 км    10/10 м  +17.0  +14.0  82  +17  +17    1019.2  989.4  +16.1  +16.7     
09:51 11.09 штиль  16 км    10/10 м  +17.0  +14.0  82  +17  +17    1019.7  990.1  +16.1  +16.7     
10:51 11.09 штиль  16 км    10/10 м  +16.7  +15.0  90  +17  +17    1020.2  990.4  +16.1  +16.7     
11:15 11.09 штиль  16 км    10/10 м  +17.0  +15.0  88  +17  +17    1020.8  990.7  +16.7  +20.6     
12:32 11.09 штиль  16 км    10/10 м  +18.0  +15.0  83  +18  +18    1021.1  991.1  +16.7  +20.6     
13:40 11.09 нст  16 км    10/10 м  +19.0  +14.0  73  +21  +21  комфорт  1021.5  991.7  +16.7  +20.6     
14:51 11.09 штиль  16 км    10/10 м  +19.0  +14.0  73  +20  +20    1022.0  992.0  +16.7  +20.6     
15:51 11.09 В  16 км    10/10 м  +19.0  +14.0  73  +20  +20    1021.6  991.7  +16.7  +20.6     
16:23 11.09 штиль  16 км    10/10 м  +20.0  +14.0  68  +22  +22  комфорт  1021.2  991.7  +16.7  +20.6     
17:51 11.09 штиль  16 км    10/10 м  +21.0  +14.0  64  +24  +24  комфорт  1020.6  990.7  +20.0  +21.1     
18:51 11.09 В  16 км    10/10 м  +21.0  +14.0  64  +25  +25  комфорт  1020.2  990.4  +20.0  +21.1     
19:12 11.09 СВ  16 км    10/10 м  +21.0  +16.0  73  +25  +25  комфорт  1020.2  990.4  +20.0  +21.1     
20:51 11.09 В  16 км  дымка  10/10 м  +21.0  +15.0  69  +25  +25  комфорт  1020.1  990.4  +20.0  +21.1     
21:51 11.09 штиль  16 км  дымка  10/10 м  +21.0  +16.0  73  +24  +24  комфорт  1020.0  990.4  +20.0  +21.1     
22:51 11.09 СВ  16 км  дымка  10/10 м  +20.0  +16.1  78  +23  +23  комфорт  1020.1  990.4  +20.0  +21.1     
23:51 11.09 штиль  16 км  дымка  10/10 м  +19.0  +16.0  83  +20  +20    1020.6  990.7  +17.8  +20.0     
00:51 12.09 В  16 км  дымка  10/10 м  +19.0  +16.0  83  +21  +21  комфорт  1020.5  990.7  +17.8  +20.0     
01:51 12.09 штиль  16 км  дымка  10/10 м  +18.9  +16.1  84  +20  +20    1020.6  990.7  +17.8  +20.0     
02:51 12.09 СВ  16 км  дымка  8/8 м  +18.0  +16.0  88  +19  +19    1020.5  990.7  +17.8  +20.0     
03:51 12.09 штиль  16 км  дымка  8/8 м  +18.3  +16.1  87  +19  +19    1020.6  990.7  +17.8  +20.0     
04:17 12.09 штиль  5 км  дымка  8/8 м  +18.0  +17.0  94  +18  +18    1020.4  990.7  +17.8  +20.0     
05:51 12.09 штиль  13 км    ясно  +18.0  +16.0  88  +18  +18    1020.1  990.4  +17.2  +17.8     
06:51 12.09 штиль  14 км    10/10 м  +18.0  +17.0  94  +18  +18    1019.9  990.4  +17.2  +17.8     
07:23 12.09 штиль  13 км    10/10 м  +18.0  +17.0  94  +18  +18    1019.7  990.1  +17.2  +17.8     
08:37 12.09 штиль  13 км    10/10 м  +18.0  +17.0  94  +18  +18    1019.8  990.1  +17.2  +17.8     
09:51 12.09 СВ  14 км    10/10 м  +17.0  +16.0  94  +17  +17    1020.2  990.4  +17.2  +17.8     
10:51 12.09 С  16 км    10/10 м  +17.8  +16.7  93  +18  +18    1020.9  991.1  +17.2  +17.8     
11:17 12.09 СВ  16 км    10/10 м  +18.0  +17.0  94  +18  +18    1021.3  991.4  +17.8  +25.6     
12:23 12.09 С  16 км    10/10 м  +19.0  +17.0  88  +21  +21  комфорт  1021.8  991.7  +17.8  +25.6     

 

Местоположение метеостанции Tri-State Airport: широта 38.3650 долгота -82.5550 высота над уровнем моря 252 м.

В архиве по умолчанию представлена погода в Хантингтоне за последние 1-2 суток. Обновление информации о фактической погоде в базе происходит ежечасно! Архивные данные за месяц целиком и за предыдущие месяцы Вы можете получить, выбрав интересующий диапазон дат из раскрывающегося списка и нажав кнопку "Ввод!".

Внимание! Архив погоды МЕТАР в базе сайта в настоящее время начинается c 1 января 2013 г. Нет смысла пытаться выбрать более раннюю дату.

Внимание! Время в таблицах - всемирное. Для получения местного времени необходимо прибавить поправку, которая в Хантингтоне равна -5 ч.

Ветер - указаны скорость ветра в м/с и направление, откуда дует ветер: С - северный, СВ - северо-восточный, В - восточный, ЮВ - юго-восточный, Ю - южный, ЮЗ - юго-западный, З - западный, СЗ - северо-западный.
Видимость - горизонтальная дальность видимости в метрах или километрах. При видимости от 1 до 10 км при отсутствии осадков обычно наблюдается дымка, при ухудшении видимости до 1 км и менее - туман. В сухую погоду видимость может ухудшаться дымом, пылью или мглою.
Атмосферные явления - указаны явления, наблюдавшиеся в указанный момент времени.
Облачность - указаны через наклонную черту верхняя и нижняя облачность в баллах и высота нижней границы облаков в метрах. Внимание: облачность, как и прочие метеорологические величины в США измеряются автоматическими метеостанциями. Указанные значения в баллах носят условный характер и показывают процент времени, в течение которого, в среднем, лазерный луч высотомера отражался от облаков обратно.
T - Температура воздуха - температура, измеренная на высоте 2 м над землей.
Td - Температура точки росы - температура, при понижении до которой содержащийся в воздухе водяной пар достигнет насыщения.
f - Относительная влажность воздуха - влажноcть воздуха, измеренная на высоте 2 м над землей.
Te - Эффективная температура - температура, которую ощущает одетый по сезону человек в тени. Характеристика душности погоды. При расчете учитывается влияние влажности воздуха и скорости ветра на теплоощущения человека.
Tes - Эффективная температура на солнце - температура, которую ощущает человек, с поправкой на солнечный нагрев. Характеристика знойности погоды. Зависит от высоты солнца над горизонтом, облачности и скорости ветра. Ночью, в пасмурную погоду, а также при ветре 12 м/с и более поправка равна нулю.
P - Атмосферное давление - приведенное к уровню моря атмосферное давление.
Po - Атмосферное давление - измеренное на уровне метеостанции атмосферное давление.
Tmin - Минимальная температура - минимум температуры воздуха на высоте 2 м над землей.
Tmax - Максимальная температура - максимум температуры воздуха на высоте 2 м над землей.
R - Количество осадков - Количество выпавших осадков за 3 или 6 часов, мм.
SD - Снежный покров - Высота снежного покрова, см.